| time (UTC) | temp F | wind direction | speed knots | gust knots | rain 1hr in | rain 24hr in | rain mn in | humidity % | barometer mb |
| 20260831122000 | 50 | 200 | 25.2 | 51.3 | 0.00 | 0.00 | 0.00 | 99 | |
| 20260831112058 | 50 | 230 | 10.4 | 22.6 | 0.00 | 0.00 | 0.00 | 99 | |
| 20260831102301 | 50 | 190 | 12.2 | 20.9 | 0.00 | 0.00 | 0.00 | 99 | |
| 20260831091959 | 50 | 210 | 12.2 | 20.9 | 0.00 | 0.00 | 0.00 | 99 | |
| 20260831082148 | 52 | 200 | 17.4 | 26.9 | 0.00 | 0.00 | 0.00 | 93 | |
| 20260831072203 | 52 | 210 | 15.6 | 26.9 | 0.00 | 0.00 | 0.00 | 93 | |
| 20260831062103 | 50 | 210 | 12.2 | 25.2 | 0.00 | 0.00 | 0.00 | 99 | |
| 20260831052215 | 50 | 260 | 7.8 | 19.1 | 0.00 | 0.00 | 0.00 | 87 | |
| 20260831042259 | 50 | 170 | 20.9 | 0.0 | 0.00 | 0.00 | 0.00 | 81 | |
| 20260831031958 | 52 | 190 | 19.1 | 28.7 | 0.00 | 0.00 | 0.00 | 81 | |
| 20260831022059 | 52 | 200 | 15.6 | 28.7 | 0.00 | 0.00 | 0.00 | 81 | |
| 20260831012059 | 52 | 210 | 13.9 | 26.9 | 0.00 | 0.00 | 0.00 | 76 | |
| 20260831001958 | 52 | 200 | 17.4 | 31.3 | 0.00 | 0.00 | 0.00 | 71 | |
| 20260830232158 | 54 | 210 | 15.6 | 28.7 | 0.00 | 0.00 | 0.00 | 71 | |
| 20260830222200 | 54 | 190 | 13.9 | 28.7 | 0.00 | 0.00 | 0.00 | 71 | |
| 20260830211959 | 54 | 170 | 12.2 | 22.6 | 0.00 | 0.00 | 0.00 | 66 | |
| 20260830202157 | 54 | 200 | 12.2 | 25.2 | 0.00 | 0.00 | 0.00 | 76 | |
| 20260830192058 | 54 | 200 | 12.2 | 25.2 | 0.00 | 0.00 | 0.00 | 76 | |
| 20260830182000 | 54 | 180 | 10.4 | 25.2 | 0.00 | 0.00 | 0.00 | 76 | |
| 20260830172158 | 54 | 100 | 7.8 | 20.9 | 0.00 | 0.00 | 0.00 | 76 | |
| 20260830162100 | 55 | 290 | 10.4 | 25.2 | 0.00 | 0.00 | 0.00 | 66 | |
| 20260830151958 | 55 | 280 | 7.8 | 19.1 | 0.00 | 0.00 | 0.00 | 76 | |
| 20260830142058 | 55 | 100 | 7.8 | 25.2 | 0.00 | 0.00 | 0.00 | 82 | |
| 20260830132059 | 54 | 270 | 10.4 | 26.9 | 0.00 | 0.00 | 0.00 | 87 |